FW3613 Weather Reports


Display with metric or nautical units.
time (UTC)temp
F
wind
direction
speed
MPH
gust
MPH
rain 1hr
in
rain 24hr
in
rain mn
in
humidity
%
barometer
mb
20260503222019 81 298 3.0 11.0 0.00 0.00 0.00 24 1008.9
20260503221526 81 309 1.0 6.0 0.00 0.00 0.00 25 1008.9
20260503221018 80 296 2.0 7.0 0.00 0.00 0.00 26 1009.0
20260503220517 81 300 3.0 12.0 0.00 0.00 0.00 25 1009.1
20260503220016 81 301 2.0 12.0 0.00 0.00 0.00 26 1009.2
20260503215516 81 296 2.0 9.0 0.00 0.00 0.00 26 1009.2
20260503215015 80 303 2.0 9.0 0.00 0.00 0.00 27 1009.4
20260503214514 80 302 4.0 9.0 0.00 0.00 0.00 27 1009.5
20260503214012 80 301 2.0 8.0 0.00 0.00 0.00 29 1009.6
20260503213511 80 319 2.0 8.0 0.00 0.00 0.00 29 1009.7
20260503213010 80 321 1.0 8.0 0.00 0.00 0.00 29 1009.8
20260503212509 80 303 3.0 8.0 0.00 0.00 0.00 29 1010.0
20260503212007 79 305 2.0 5.0 0.00 0.00 0.00 29 1010.0
20260503211506 79 291 1.0 8.0 0.00 0.00 0.00 30 1010.1
20260503211010 79 305 4.0 8.0 0.00 0.00 0.00 29 1010.1
20260503210505 79 307 2.0 7.0 0.00 0.00 0.00 30 1010.2
20260503210005 79 301 3.0 6.0 0.00 0.00 0.00 30 1010.2
20260503205503 79 295 1.0 6.0 0.00 0.00 0.00 30 1010.2
20260503205003 79 301 3.0 6.0 0.00 0.00 0.00 30 1010.3
20260503204500 79 120 1.0 5.0 0.00 0.00 0.00 27 1010.4
20260503204059 79 139 1.0 5.0 0.00 0.00 0.00 28 1010.5
20260503203559 79 307 1.0 7.0 0.00 0.00 0.00 26 1010.6
20260503203059 78 278 2.0 7.0 0.00 0.00 0.00 25 1010.6
20260503202557 78 347 1.0 7.0 0.00 0.00 0.00 26 1010.7
20260503202057 78 297 2.0 7.0 0.00 0.00 0.00 25 1010.8
20260503201556 79 297 1.0 4.0 0.00 0.00 0.00 26 1010.8
20260503201055 79 285 1.0 4.0 0.00 0.00 0.00 28 1010.9
20260503200553 78 264 0.0 5.0 0.00 0.00 0.00 28 1010.9
20260503200056 77 108 2.0 5.0 0.00 0.00 0.00 27 1011.0
20260503195556 77 121 1.0 4.0 0.00 0.00 0.00 28 1011.1
20260503195054 77 316 1.0 4.0 0.00 0.00 0.00 28 1011.2
20260503194558 77 297 1.0 5.0 0.00 0.00 0.00 30 1011.3
20260503194048 76 270 1.0 7.0 0.00 0.00 0.00 29 1011.3
20260503193547 75 288 2.0 7.0 0.00 0.00 0.00 30 1011.4
20260503193046 76 296 2.0 5.0 0.00 0.00 0.00 31 1011.5
20260503192544 75 226 0.0 5.0 0.00 0.00 0.00 31 1011.7
20260503192043 74 283 3.0 6.0 0.00 0.00 0.00 32 1011.7
20260503191546 74 277 0.0 6.0 0.00 0.00 0.00 32 1011.8
20260503191042 75 296 2.0 5.0 0.00 0.00 0.00 32 1011.8
20260503190541 75 128 1.0 4.0 0.00 0.00 0.00 33 1011.9
20260503190039 74 294 0.0 5.0 0.00 0.00 0.00 33 1012.0
20260503185638 74 282 1.0 5.0 0.00 0.00 0.00 32 1012.0
20260503185037 73 297 0.0 5.0 0.00 0.00 0.00 33 1012.1
20260503184535 73 282 1.0 5.0 0.00 0.00 0.00 33 1012.2
20260503184035 73 293 1.0 4.0 0.00 0.00 0.00 33 1012.2
20260503183533 73 295 1.0 4.0 0.00 0.00 0.00 33 1012.3
20260503183034 72 136 2.0 4.0 0.00 0.00 0.00 33 1012.4
20260503182531 72 300 1.0 4.0 0.00 0.00 0.00 33 1012.4
20260503182030 72 293 1.0 4.0 0.00 0.00 0.00 33 1012.5
20260503181529 71 121 1.0 4.0 0.00 0.00 0.00 33 1012.6
20260503181027 71 286 0.0 4.0 0.00 0.00 0.00 34 1012.6
20260503180526 70 311 0.0 3.0 0.00 0.00 0.00 35 1012.7
20260503180025 70 305 0.0 3.0 0.00 0.00 0.00 34 1012.7
20260503175523 70 301 1.0 3.0 0.00 0.00 0.00 34 1012.8
20260503175022 69 291 1.0 3.0 0.00 0.00 0.00 34 1012.8
20260503174521 69 288 0.0 3.0 0.00 0.00 0.00 35 1012.9
20260503174019 69 280 0.0 4.0 0.00 0.00 0.00 36 1013.0
20260503173518 68 322 0.0 4.0 0.00 0.00 0.00 36 1013.0
20260503173017 68 300 3.0 4.0 0.00 0.00 0.00 36 1013.0
20260503172516 68 294 1.0 3.0 0.00 0.00 0.00 36 1013.0
20260503172016 68 283 2.0 3.0 0.00 0.00 0.00 36 1013.1
20260503171514 67 288 0.0 4.0 0.00 0.00 0.00 36 1013.1
20260503171013 67 305 1.0 4.0 0.00 0.00 0.00 36 1013.2
20260503170513 67 305 1.0 3.0 0.00 0.00 0.00 35 1013.2
20260503150545 57 120 0.0 0.0 0.00 0.00 0.00 53 1014.1
20260503131038 43 112 0.0 0.0 0.00 0.00 0.00 84 1013.7
20260503130540 43 112 0.0 0.0 0.00 0.00 0.00 83 1013.7
20260503110521 46 91 0.0 0.0 0.00 0.00 0.00 77 1013.6
20260503090501 49 91 0.0 0.0 0.00 0.00 0.00 72 1013.1
20260503090105 49 91 0.0 0.0 0.00 0.00 0.00 72 1013.2
20260503081554 50 91 0.0 0.0 0.00 0.00 0.00 70 1013.4
20260503081052 50 91 0.0 0.0 0.00 0.00 0.00 71 1013.5
20260503080552 50 91 0.0 0.0 0.00 0.00 0.00 71 1013.4
20260503072544 52 91 0.0 1.0 0.00 0.00 0.00 65 1013.5
20260503072043 53 91 0.0 1.0 0.00 0.00 0.00 64 1013.5
20260503071601 53 91 0.0 1.0 0.00 0.00 0.00 62 1013.4
20260503071040 54 92 0.0 0.0 0.00 0.00 0.00 61 1013.4
20260503070539 54 91 0.0 1.0 0.00 0.00 0.00 59 1013.4
20260503055023 58 92 0.0 0.0 0.00 0.00 0.00 53 1012.8
20260503054531 58 92 0.0 0.0 0.00 0.00 0.00 52 1012.8
20260503054023 58 92 0.0 0.0 0.00 0.00 0.00 50 1012.7
20260503053523 58 91 0.0 0.0 0.00 0.00 0.00 52 1012.8
20260503053023 59 92 0.0 0.0 0.00 0.00 0.00 52 1012.8
20260503052523 59 91 0.0 0.0 0.00 0.00 0.00 51 1012.7
20260503052024 59 92 0.0 0.0 0.00 0.00 0.00 50 1012.7
20260503051522 59 91 0.0 0.0 0.00 0.00 0.00 51 1012.7
20260503051022 59 92 0.0 0.0 0.00 0.00 0.00 51 1012.7
20260503050521 59 92 0.0 0.0 0.00 0.00 0.00 51 1012.7
20260503050034 59 92 0.0 1.0 0.00 0.00 0.00 52 1012.7
20260503045521 59 92 0.0 1.0 0.00 0.00 0.00 51 1012.6
20260503045025 60 92 0.0 1.0 0.00 0.00 0.00 52 1012.6
20260503044522 61 92 0.0 1.0 0.00 0.00 0.00 52 1012.6
20260503044021 62 85 0.0 1.0 0.00 0.00 0.00 49 1012.6
20260503043520 62 72 0.0 1.0 0.00 0.00 0.00 46 1012.5
20260503043020 62 72 0.0 1.0 0.00 0.00 0.00 44 1012.4
20260503042520 62 72 0.0 1.0 0.00 0.00 0.00 43 1012.4
20260503042020 62 72 0.0 1.0 0.00 0.00 0.00 45 1012.4
20260503041529 62 72 0.0 1.0 0.00 0.00 0.00 46 1012.3
20260503041019 63 72 0.0 1.0 0.00 0.00 0.00 46 1012.3
20260503040519 64 57 0.0 1.0 0.00 0.00 0.00 43 1012.2
20260503040019 64 51 0.0 1.0 0.00 0.00 0.00 43 1012.1
20260503035519 65 51 0.0 0.0 0.00 0.00 0.00 42 1012.0
20260503035019 65 51 0.0 0.0 0.00 0.00 0.00 41 1012.1
20260503034519 65 51 0.0 1.0 0.00 0.00 0.00 43 1012.0
20260503034020 65 51 0.0 1.0 0.00 0.00 0.00 43 1011.9
20260503033518 65 44 0.0 1.0 0.00 0.00 0.00 42 1011.9
20260503033018 65 44 0.0 1.0 0.00 0.00 0.00 41 1011.8
20260503032523 66 75 0.0 1.0 0.00 0.00 0.00 42 1011.7
20260503032018 67 75 0.0 1.0 0.00 0.00 0.00 40 1011.5
20260503031519 67 72 0.0 1.0 0.00 0.00 0.00 38 1011.5
20260503031018 67 183 0.0 1.0 0.00 0.00 0.00 38 1011.5
20260503030518 68 183 0.0 1.0 0.00 0.00 0.00 37 1011.4
20260503030020 68 183 0.0 1.0 0.00 0.00 0.00 38 1011.3
20260503025516 68 183 0.0 0.0 0.00 0.00 0.00 38 1011.3
20260503025016 69 184 0.0 0.0 0.00 0.00 0.00 36 1011.2
20260503024516 69 183 0.0 1.0 0.00 0.00 0.00 35 1011.2
20260503024019 69 183 0.0 1.0 0.00 0.00 0.00 35 1011.3
20260503023516 70 183 0.0 1.0 0.00 0.00 0.00 36 1011.3
20260503023015 70 184 0.0 1.0 0.00 0.00 0.00 34 1011.3
20260503022515 71 207 0.0 1.0 0.00 0.00 0.00 35 1011.3
20260503022018 71 208 0.0 0.0 0.00 0.00 0.00 33 1011.2
20260503021520 72 214 0.0 0.0 0.00 0.00 0.00 33 1011.2
20260503021016 73 214 0.0 1.0 0.00 0.00 0.00 34 1011.2
20260503020514 74 214 0.0 1.0 0.00 0.00 0.00 33 1011.2
20260503020016 74 224 0.0 1.0 0.00 0.00 0.00 27 1011.2
20260503015514 75 226 0.0 1.0 0.00 0.00 0.00 28 1011.2
20260503015013 76 260 0.0 1.0 0.00 0.00 0.00 26 1011.2
20260503014512 77 282 0.0 1.0 0.00 0.00 0.00 23 1011.2
20260503014012 77 283 0.0 2.0 0.00 0.00 0.00 21 1011.2
20260503013512 77 283 0.0 2.0 0.00 0.00 0.00 18 1011.3
20260503013012 78 283 0.0 2.0 0.00 0.00 0.00 17 1011.4
20260503012512 78 286 0.0 2.0 0.00 0.00 0.00 17 1011.3
20260503012010 78 285 0.0 3.0 0.00 0.00 0.00 15 1011.4
20260503011511 79 287 0.0 3.0 0.00 0.00 0.00 15 1011.4
20260503011010 79 288 1.0 2.0 0.00 0.00 0.00 14 1011.4
20260503010510 79 289 1.0 2.0 0.00 0.00 0.00 14 1011.4
20260503010010 79 288 0.0 3.0 0.00 0.00 0.00 14 1011.4
20260503005510 79 290 1.0 3.0 0.00 0.00 0.00 13 1011.5
20260503005008 79 288 0.0 2.0 0.00 0.00 0.00 15 1011.4
20260503004510 79 288 0.0 2.0 0.00 0.00 0.00 15 1011.5
20260503004011 79 288 1.0 3.0 0.00 0.00 0.00 14 1011.5
20260503003511 80 298 1.0 3.0 0.00 0.00 0.00 14 1011.5
20260503003007 80 303 0.0 2.0 0.00 0.00 0.00 15 1011.5
20260503002506 80 319 0.0 2.0 0.00 0.00 0.00 15 1011.6
20260503002007 80 314 0.0 1.0 0.00 0.00 0.00 14 1011.7
20260503001506 80 314 0.0 1.0 0.00 0.00 0.00 13 1011.7
20260503001004 80 314 0.0 2.0 0.00 0.00 0.00 14 1011.7
20260503000505 80 314 0.0 2.0 0.00 0.00 0.00 14 1011.7
20260503000005 80 316 0.0 4.0 0.00 0.00 0.00 13 1011.7
20260502235504 80 313 0.0 4.0 0.00 0.00 0.00 12 1011.8
20260502235004 81 291 2.0 3.0 0.00 0.00 0.00 12 1011.7
20260502234503 81 117 0.0 2.0 0.00 0.00 0.00 12 1011.8
20260502234004 81 109 1.0 4.0 0.00 0.00 0.00 11 1011.8
20260502233503 81 280 0.0 4.0 0.00 0.00 0.00 12 1011.9
20260502233002 81 125 0.0 4.0 0.00 0.00 0.00 13 1011.9
20260502232504 81 33 0.0 2.0 0.00 0.00 0.00 12 1012.0
20260502232001 81 129 0.0 3.0 0.00 0.00 0.00 11 1012.0
20260502231601 80 126 0.0 3.0 0.00 0.00 0.00 11 1012.0
20260502231100 80 82 0.0 3.0 0.00 0.00 0.00 13 1012.0
20260502230600 81 61 0.0 2.0 0.00 0.00 0.00 12 1012.1
20260502230059 80 120 0.0 2.0 0.00 0.00 0.00 13 1012.1
20260502225557 80 126 1.0 3.0 0.00 0.00 0.00 13 1012.2
20260502225057 80 115 1.0 3.0 0.00 0.00 0.00 13 1012.3
20260502224603 81 111 0.0 4.0 0.00 0.00 0.00 12 1012.3
20260502224055 81 105 2.0 4.0 0.00 0.00 0.00 12 1012.4
20260502223554 81 112 0.0 3.0 0.00 0.00 0.00 13 1012.4
20260502223053 81 49 1.0 3.0 0.00 0.00 0.00 13 1012.6
20260502222553 81 118 1.0 4.0 0.00 0.00 0.00 13 1012.7